Probability
3 4 4 2 2 4 6 6 7 9 9 8 6 5 3 1 0 0 0 0 1 1 1 2 3 2 1 0 0 0 1 2 2 2 1 1 1 1 0 0 0 0 0
6 6 5 3 3 5 7 7 8 9 10 9 8 7 5 2 0 1 1 1 2 2 2 2 3 3 3 1 1 1 2 3 3 4 3 2 1 1 0 0 0 0 0
9 8 7 5 5 8 10 9 9 10 11 12 11 11 8 4 3 3 3 3 4 3 3 3 4 5 5 4 3 4 4 4 5 6 6 4 3 3 2 1 1 1 1
12 13 12 10 8 8 10 11 11 12 12 13 14 13 10 7 6 6 6 6 6 4 4 4 5 7 7 6 6 6 6 6 6 7 8 8 7 7 4 2 1 2 3
17 19 20 17 13 10 11 13 13 13 13 13 13 13 11 8 8 8 10 10 9 7 6 7 9 9 8 7 7 7 7 8 8 8 10 10 10 10 7 3 1 1 1
22 25 26 23 18 14 13 14 15 15 13 12 12 12 11 10 10 11 12 12 11 10 9 11 13 12 9 8 8 8 8 9 9 9 10 10 11 11 8 4 1 0 0
27 29 29 25 21 17 16 17 20 20 17 14 13 12 11 11 12 14 15 14 12 11 12 13 14 12 10 9 10 10 9 9 9 9 9 10 10 10 9 6 3 1 1
26 28 29 28 25 21 20 21 25 27 25 21 18 16 14 13 14 16 17 15 12 12 13 13 13 13 12 11 13 12 11 10 9 8 8 8 8 10 11 10 6 3 2
20 24 28 31 29 26 24 25 28 30 29 28 25 20 16 15 16 18 18 17 15 15 16 15 14 13 12 13 14 14 12 12 12 11 10 9 9 10 12 12 9 5 3
16 19 26 30 31 28 27 27 28 29 28 28 26 21 15 14 15 16 17 19 20 21 21 20 17 15 14 14 14 13 13 15 16 15 14 13 12 12 12 12 10 9 8
19 20 25 31 32 29 26 26 27 28 26 24 24 21 16 12 12 14 17 21 23 23 23 23 21 19 18 16 14 13 15 17 19 19 19 17 15 14 12 11 11 11 12
24 24 26 32 35 32 27 25 27 28 26 24 23 22 19 16 16 17 19 22 22 21 21 21 22 22 22 19 16 14 15 18 20 22 21 19 17 15 13 12 11 11 12
26 25 27 32 37 37 33 29 28 29 28 25 23 22 21 21 21 21 21 22 22 22 21 19 19 21 22 20 17 15 17 18 20 21 20 19 18 16 15 14 13 13 13
24 25 28 31 36 39 38 35 33 34 32 27 24 24 24 24 23 23 22 22 24 25 24 22 21 21 22 21 17 16 17 19 19 19 17 16 16 15 14 14 15 14 14
20 23 28 32 34 37 39 38 38 39 37 35 32 29 28 26 24 23 23 24 26 27 29 28 27 25 23 19 16 15 16 18 20 19 17 15 14 13 12 11 12 13 14
20 22 28 32 34 36 38 38 39 41 42 44 41 35 31 27 25 25 24 26 29 31 33 33 31 30 24 16 11 14 17 20 22 20 17 14 13 12 8 6 5 7 9
23 25 28 32 35 37 38 38 39 41 44 47 45 39 35 31 29 27 26 27 31 34 34 32 30 30 25 15 8 10 17 21 22 21 17 14 12 11 8 6 4 5 7
25 26 28 32 36 37 37 37 37 38 41 44 43 40 37 34 31 30 29 31 32 34 34 31 28 30 27 16 7 8 14 19 21 20 19 18 14 11 9 9 10 11 11
26 27 28 33 38 38 37 34 32 33 36 39 40 38 37 36 35 35 34 34 33 33 33 32 30 31 27 16 6 6 14 19 20 20 21 20 15 10 8 10 14 16 16
27 28 29 33 38 38 36 32 30 31 34 36 36 36 36 37 36 36 36 33 31 31 32 33 33 30 24 14 5 6 14 20 20 20 20 16 11 7 6 9 13 16 16
26 26 28 31 33 35 35 33 32 33 35 35 34 33 33 34 33 33 32 30 28 28 29 30 30 26 19 11 4 4 11 17 18 19 18 14 7 4 4 6 10 12 12
24 24 27 28 29 30 32 32 31 31 32 30 29 27 27 28 28 28 28 27 26 25 24 22 21 20 16 10 5 2 4 8 13 16 16 11 5 1 1 3 5 7 8
24 25 27 28 28 28 29 27 25 25 24 22 20 19 19 20 22 23 23 23 22 20 17 14 13 14 15 13 8 3 1 2 7 10 10 6 2 0 0 1 2 4 7
26 27 27 27 27 26 26 23 19 18 16 13 11 10 11 14 15 17 18 18 17 15 12 11 10 11 14 15 12 8 4 3 4 6 6 4 2 2 2 2 3 5 8
25 25 24 23 23 22 22 19 15 13 11 8 6 7 9 11 11 13 14 15 13 11 10 10 10 10 11 13 12 9 7 5 4 5 7 7 5 5 5 5 5 7 9
24 23 21 20 19 18 17 15 13 11 9 6 5 7 10 10 9 11 12 12 11 8 8 9 10 9 9 9 7 6 5 4 3 4 8 9 7 6 6 6 6 7 9
Wind_Speed
11 11 12 12 11 11 10 10 9 8 7 6 6 5 5 4 4 4 5 5 4 4 4 3 3 3 3 3 4 3 4 3 2 2 2 2 3 3 2 2 2 3 3
12 12 12 12 12 12 11 10 10 9 9 6 5 4 4 4 4 3 4 5 5 5 5 4 3 4 3 4 4 4 3 3 3 2 2 2 3 3 3 3 3 3 3
13 13 13 13 12 12 12 10 10 10 9 8 6 5 4 4 4 4 4 5 5 5 4 4 4 3 4 4 4 5 5 3 3 3 3 2 1 0 3 3 3 3 3
12 13 13 13 13 12 12 11 11 10 9 9 8 8 6 6 5 4 4 5 5 5 5 5 4 4 3 3 5 4 4 4 4 3 3 3 2 2 1 3 3 3 4
12 13 13 13 12 12 11 11 11 10 10 9 9 9 7 6 5 5 5 5 5 5 5 5 4 4 4 4 4 3 4 4 4 3 3 3 3 4 4 3 2 3 4
11 12 12 12 11 11 11 11 11 10 10 10 10 9 8 7 6 6 5 5 4 4 5 5 4 4 4 4 4 4 5 4 4 3 3 3 3 4 4 4 4 4 3
10 11 13 13 12 13 12 12 12 11 10 11 10 10 9 9 8 7 6 6 4 4 5 5 4 4 4 4 4 5 4 5 5 5 4 3 4 3 4 4 4 4 3
9 11 12 12 12 12 13 13 13 12 11 10 10 9 9 8 7 7 6 6 4 4 4 5 5 4 5 5 4 4 5 4 5 5 4 4 4 4 4 4 4 5 4
8 10 11 11 11 12 12 13 12 11 11 10 9 8 8 7 6 5 6 5 4 4 5 5 5 5 4 4 5 4 4 4 5 5 5 5 4 4 4 4 5 5 5
7 8 8 9 10 11 11 11 11 11 10 10 9 7 8 7 7 6 5 5 4 4 4 4 4 4 4 5 5 5 4 5 5 4 5 5 4 4 4 5 5 5 6
5 6 7 8 8 9 10 10 10 10 9 9 8 7 7 7 7 6 6 5 5 5 5 5 5 5 4 4 4 5 5 5 5 5 5 6 5 4 4 4 4 5 5
3 4 5 7 7 8 8 9 9 9 9 8 8 7 7 7 7 7 6 6 6 6 6 5 5 5 5 5 5 6 5 6 6 6 6 6 5 6 6 5 6 5 6
2 3 4 6 6 7 7 8 8 9 9 9 8 8 8 7 7 7 6 6 6 6 6 6 5 5 5 5 5 5 5 6 6 6 6 6 6 6 5 6 6 5 6
2 3 4 5 5 6 6 6 7 7 8 8 8 8 8 7 7 6 6 6 6 6 6 6 6 5 5 5 5 6 6 6 6 6 6 6 6 7 6 6 6 6 6
3 3 3 4 5 5 5 6 6 6 7 8 8 8 7 7 6 5 5 5 5 6 5 5 6 5 5 5 5 5 6 6 7 7 7 7 6 6 6 6 5 6 6
3 3 3 4 5 5 5 5 5 6 6 7 7 6 6 7 6 6 6 5 5 5 5 6 6 6 4 2 3 5 6 6 7 7 6 7 7 7 7 7 7 7 7
3 3 3 3 4 5 5 6 6 6 6 7 7 7 7 7 6 6 5 5 5 5 5 5 5 5 4 3 4 5 6 6 6 6 6 6 5 6 7 7 8 8 9
3 3 3 3 4 4 5 5 5 6 6 6 6 6 6 6 5 5 5 5 4 4 4 5 5 5 4 4 4 5 7 6 6 7 7 7 6 5 6 7 7 7 7
2 2 2 3 3 4 5 5 5 5 6 5 5 5 5 5 6 6 5 5 4 4 5 5 5 5 4 4 4 5 6 6 7 7 7 7 7 4 5 7 7 7 6
2 2 2 3 3 3 4 4 5 5 5 4 4 4 4 4 5 5 4 4 4 3 4 3 4 4 4 3 4 6 5 5 5 6 6 6 6 4 4 7 7 7 6
3 3 2 3 3 3 4 3 3 3 3 3 3 3 3 4 4 4 3 3 3 3 3 3 3 3 3 3 4 5 5 5 5 5 5 4 4 4 5 7 7 6 6
3 3 3 3 3 3 3 3 2 2 2 3 3 3 3 2 3 3 3 3 3 3 3 4 4 3 3 3 3 5 6 6 5 5 4 2 2 4 6 6 5 5 6
3 3 3 3 3 2 2 2 2 2 2 2 3 2 2 2 2 2 3 3 3 3 3 3 3 3 2 2 4 5 5 6 5 3 3 2 4 5 6 7 7 7 6
3 3 4 4 3 2 2 2 2 2 3 3 2 3 3 2 2 1 2 2 2 2 2 3 3 2 2 1 1 2 3 4 4 4 2 4 5 6 4 4 5 5 4
3 3 3 3 3 2 2 3 2 2 3 3 2 2 2 2 2 1 0 1 1 2 2 2 2 2 2 1 3 2 2 2 2 3 3 3 2 3 3 3 3 3 3
3 3 3 3 3 2 2 2 2 2 2 2 2 1 1 1 1 1 1 2 1 2 2 3 3 1 1 1 1 2 2 2 2 3 3 2 3 3 3 3 3 3 3
Wind_Direction
190 187 189 189 187 186 187 189 191 181 186 185 189 187 187 191 189 185 179 188 200 196 211 224 188 210 209 212 205 200 192 199 190 212 220 213 205 204 214 226 232 216 215
191 188 192 192 192 191 192 191 193 190 194 188 194 196 196 194 190 195 179 193 199 207 205 218 218 206 207 208 209 209 218 213 206 224 234 223 191 187 204 213 216 232 220
194 189 192 196 195 194 194 196 194 192 196 190 191 190 189 207 191 191 191 198 201 206 221 216 223 213 217 206 210 214 218 220 221 230 253 259 246 210 180 203 210 219 230
197 191 191 195 197 196 193 194 192 193 193 193 197 197 200 202 196 195 185 189 199 207 207 211 215 221 225 214 225 209 224 224 228 215 236 266 310 288 245 198 194 208 222
200 195 193 193 195 193 191 189 190 193 192 196 195 201 205 203 195 195 183 199 195 206 209 206 210 215 224 218 230 215 226 227 238 236 223 222 231 240 253 254 233 219 220
201 198 193 189 190 189 190 187 185 190 192 197 199 204 205 206 203 202 195 201 194 195 199 203 207 214 219 214 217 221 218 231 240 251 242 233 236 236 242 254 248 245 239
197 194 192 189 189 189 189 186 183 188 191 196 201 202 206 207 209 210 207 213 202 193 191 202 202 208 213 218 216 216 228 225 228 234 241 243 248 256 257 256 259 261 253
193 191 190 190 190 190 190 188 186 188 190 196 201 203 205 212 210 209 214 208 217 209 190 200 204 210 216 221 215 223 218 223 231 238 243 246 243 242 241 251 260 259 250
191 189 188 189 189 191 191 190 187 189 190 193 196 200 203 210 213 206 214 214 211 208 199 203 208 211 215 224 224 228 227 224 231 236 229 239 239 240 243 245 251 261 268
190 188 187 189 191 190 187 188 187 189 190 189 193 193 197 199 205 212 213 216 212 214 209 210 215 217 216 219 229 228 224 231 233 241 245 247 246 242 244 244 245 251 262
181 182 185 185 185 185 182 181 182 184 186 189 190 195 194 197 201 204 206 208 210 207 209 211 215 218 218 217 223 238 230 232 236 239 234 238 254 252 246 241 243 246 250
151 164 170 171 173 175 177 178 181 183 183 185 189 190 191 197 202 202 204 206 210 212 209 210 213 218 216 216 222 234 235 237 239 241 241 239 234 239 252 249 246 247 247
128 147 157 163 167 170 172 177 184 186 185 184 187 190 194 201 206 205 204 206 209 213 213 210 213 217 218 218 223 233 238 243 244 242 241 242 241 242 243 247 250 250 245
123 140 149 158 159 164 170 177 184 185 183 183 188 190 196 200 204 206 205 208 211 214 217 216 219 220 221 222 227 232 236 241 244 244 244 245 241 243 246 246 248 253 253
145 138 149 154 159 166 173 180 182 181 184 183 187 189 190 191 195 197 201 205 212 216 216 218 219 222 224 225 230 237 239 241 242 240 240 242 246 258 259 263 258 254 254
163 150 149 161 167 173 178 181 183 182 182 186 188 185 187 189 191 191 197 201 208 215 215 220 220 222 227 193 225 250 247 244 244 241 239 237 229 235 236 252 263 268 263
182 168 164 170 174 179 182 184 186 184 184 187 188 186 188 190 192 195 198 203 208 212 216 221 221 222 222 189 202 239 253 249 247 247 246 250 240 234 241 233 231 242 251
183 173 176 172 173 178 177 181 180 182 186 186 187 187 189 188 189 195 199 204 209 215 220 223 228 230 215 186 208 231 242 248 247 246 244 248 253 250 258 258 251 246 241
167 168 171 165 164 171 170 176 182 182 184 181 183 185 189 192 193 198 200 204 211 217 225 228 229 230 223 193 209 233 242 244 249 248 247 249 250 249 258 254 254 255 251
154 159 155 153 160 160 164 172 177 178 181 179 181 183 190 195 195 193 196 202 208 217 225 226 230 232 239 205 209 234 244 245 249 246 241 238 251 250 245 250 253 255 256
146 147 152 152 149 154 155 162 163 176 177 172 177 182 186 197 192 185 187 197 205 214 229 228 231 227 233 205 204 227 252 255 255 255 249 231 210 233 235 250 254 256 263
148 147 142 130 130 142 152 158 162 164 175 178 174 171 175 193 171 174 185 197 206 213 225 224 232 222 214 215 194 207 238 272 262 262 265 249 197 234 240 244 251 249 255
145 138 129 121 120 135 152 158 159 165 172 173 167 162 165 172 170 186 195 204 214 230 240 234 237 237 222 187 177 200 227 251 261 276 305 279 221 223 226 227 232 232 238
141 140 132 126 122 123 129 133 141 157 164 168 168 167 165 166 153 206 212 215 226 238 253 256 248 248 248 246 219 226 227 229 242 264 255 228 228 233 239 230 225 235 249
143 145 137 132 125 118 115 117 132 158 161 159 170 179 167 141 142 139 10 265 344 329 299 292 275 272 271 350 351 292 275 279 280 272 257 255 250 246 247 248 254 255 244
139 136 133 132 126 120 110 108 124 151 170 171 170 172 160 144 160 145 129 64 25 38 9 343 320 339 24 24 2 342 317 302 288 276 266 270 268 266 266 262 257 253 255